Flag for Germany Weather past 2 weeks in Viersen, North Rhine-Westphalia, Germany

Now
54 °F

Passing clouds.


Feels Like: 49 °F
Forecast: 44 / 54 °F
Wind: 16 mph from Southwest

Location: Monchengladbach Airport

Current Time: Dec 18, 2014 at 9:02:36 PM

Latest Report: Dec 18, 2014 at 7:50 PM


Visibility: N/A

Pressure: 29.89 "Hg

Humidity: 88%

Dew point: 50 °F

Location of ViersenLocation

Historic Weather in Viersen — Graph

°F

Viersen temperature yesterday

Maximum temperature yesterday: 50 °F (at 5:50 PM)
Minimum temperature yesterday: 41 °F (at 7:50 AM)
Average temperature yesterday: 45 °F

Past Weeks' High & Low Weather Summary

 TemperatureHumidityPressure
High55 °F (Dec 18, 12:20 PM)100% (Dec 6, 8:20 AM)30.39 "Hg (Dec 6, 8:20 AM)
Low30 °F (Dec 3, 7:20 PM)66% (Dec 7, 12:50 PM)29.42 "Hg (Dec 12, 12:50 PM)
Average42 °F88%29.95 "Hg
* Reported Dec 3 7:20 PM — Dec 18 7:50 PM, Viersen, Weather by CustomWeather, © 2014

Note: Actual official high and low records may vary slightly from our data, if they occured in-between our weather recording intervals... More about our weather records

Advertising

Viersen weather history for previous 24 hours

 ConditionsComfort  
Time TempWeatherWind HumidityBarometerVisibility
7:50 PM
Dec 18
54 °FPassing clouds.16 mph88%29.89 "HgN/A
7:20 PM55 °FPassing clouds.16 mph82%29.89 "HgN/A
6:50 PM55 °FPassing clouds.17 mph82%29.89 "HgN/A
6:20 PM55 °FPassing clouds.18 mph82%29.86 "HgN/A
5:50 PM55 °FPassing clouds.16 mph88%29.86 "HgN/A
5:20 PM55 °FPassing clouds.16 mph94%29.86 "Hg6 mi
4:50 PM55 °FPassing clouds.14 mph94%29.86 "HgN/A
4:20 PM55 °FPassing clouds.13 mph94%29.86 "HgN/A
3:50 PM54 °FPassing clouds.12 mph100%29.83 "Hg3 mi
3:20 PM54 °FPassing clouds.12 mph100%29.83 "Hg2 mi
2:50 PM54 °FPassing clouds.10 mph100%29.83 "Hg2 mi
2:20 PM54 °FPassing clouds.9 mph94%29.86 "Hg3 mi
1:50 PM54 °FDrizzle. Fog.10 mph100%29.83 "Hg3 mi
1:20 PM54 °FLight rain. Passing clouds.10 mph94%29.83 "Hg6 mi
12:50 PM54 °FPassing clouds.10 mph94%29.83 "Hg5 mi
12:20 PM55 °FPassing clouds.9 mph88%29.86 "HgN/A
11:50 AM54 °FPassing clouds.10 mph94%29.86 "HgN/A
11:20 AM54 °FPassing clouds.9 mph94%29.86 "Hg6 mi
10:50 AM54 °FPassing clouds.9 mph94%29.86 "Hg5 mi
10:20 AM52 °FDrizzle. Fog.7 mph100%29.86 "Hg2 mi
9:50 AM52 °FDrizzle. Fog.6 mph100%29.83 "Hg2 mi
9:20 AM52 °FLight rain. Fog.6 mph100%29.83 "Hg2 mi
8:50 AM52 °FPassing clouds.7 mph94%29.83 "HgN/A
8:20 AM52 °FPassing clouds.7 mph100%29.83 "Hg5 mi
7:50 AM52 °FLight rain. Passing clouds.7 mph100%29.83 "HgN/A
Weather by CustomWeather, © 2014

See weather overviewHow to use our weather pages